GW4692 Weather Reports


Display with metric or nautical units.
time (UTC)temp
F
wind
direction
speed
MPH
gust
MPH
rain 1hr
in
rain 24hr
in
rain mn
in
humidity
%
barometer
mb
20260507001525 51 20 0.0 3.0 0.01 0.93 0.01 70 1003.5
20260507000020 51 29 2.0 6.0 0.01 0.93 0.01 70 1003.4
20260506234538 51 22 3.0 8.0 0.00 0.92 0.00 71 1003.5
20260506231602 51 11 4.0 7.0 0.00 0.92 0.00 70 1003.4
20260506231514 51 7 4.0 9.0 0.00 0.92 0.00 70 1003.4
20260506230059 51 353 5.0 8.0 0.00 0.92 0.00 70 1003.1
20260506224556 51 21 4.0 7.0 0.00 0.92 0.00 70 1003.2
20260506223021 51 40 4.0 8.0 0.00 0.92 0.00 70 1003.0
20260506221552 51 24 4.0 9.0 0.00 0.92 0.00 70 1003.1
20260506220049 51 18 5.0 9.0 0.00 0.92 0.00 70 1003.1
20260506213041 51 9 3.0 6.0 0.00 0.92 0.92 70 1003.0
20260506211539 50 7 0.0 4.0 0.00 0.92 0.92 70 1003.0
20260506211508 51 7 0.0 4.0 0.00 0.92 0.92 70 1002.9
20260506210041 50 38 3.0 6.0 0.00 0.92 0.92 70 1002.8
20260506204525 51 1 3.0 6.0 0.00 0.93 0.92 70 1002.7
20260506201559 51 14 5.0 8.0 0.00 0.93 0.92 71 1002.6
20260506200033 51 34 2.0 3.0 0.00 0.93 0.92 71 1002.5
20260506193145 51 56 2.0 4.0 0.01 0.94 0.92 70 1002.0
20260506191606 51 7 3.0 7.0 0.09 0.94 0.92 70 1001.7
20260506190052 51 7 4.0 14.0 0.11 0.94 0.92 70 1001.4
20260506184551 51 71 11.0 17.0 0.11 0.94 0.92 70 1000.5
20260506183021 52 22 8.0 11.0 0.09 0.93 0.91 70 1001.5
20260506181544 53 298 9.0 18.0 0.02 0.86 0.83 70 1002.2
20260506180044 53 279 5.0 7.0 0.00 0.83 0.81 69 1001.2
20260506174539 54 357 0.0 0.0 0.00 0.83 0.81 70 1000.6
20260506173033 54 357 0.0 3.0 0.00 0.83 0.81 70 1000.3
20260506171554 54 27 2.0 4.0 0.00 0.83 0.81 70 1000.0
20260506170023 54 81 1.0 3.0 0.00 0.83 0.81 69 999.9
20260506164511 54 96 1.0 3.0 0.00 0.86 0.81 69 1000.0
20260506163008 54 58 1.0 6.0 0.00 0.86 0.81 70 1000.0
20260506161509 54 360 6.0 10.0 0.00 0.86 0.81 70 999.4
20260506160103 54 28 8.0 13.0 0.01 0.86 0.81 70 998.7
20260506160004 54 24 9.0 13.0 0.01 0.89 0.81 70 998.7
20260506154559 54 38 5.0 13.0 0.06 0.89 0.81 70 998.8
20260506153037 55 40 8.0 16.0 0.36 0.89 0.81 71 999.1
20260506151639 54 13 9.0 13.0 0.39 0.89 0.81 73 999.2
20260506150056 52 33 7.0 15.0 0.39 0.88 0.80 72 999.2
20260506144600 52 26 10.0 19.0 0.34 0.85 0.76 71 999.4
20260506143029 53 21 12.0 16.0 0.17 0.53 0.43 69 999.8
20260506141513 54 23 10.0 13.0 0.15 0.51 0.42 73 999.2
20260506140134 56 339 1.0 11.0 0.15 0.51 0.42 76 999.0
20260506134631 55 338 9.0 13.0 0.15 0.51 0.42 75 998.8
20260506133053 60 229 13.0 24.0 0.00 0.36 0.27 71 999.1
20260506131638 59 74 16.0 21.0 0.00 0.36 0.27 73 998.4
20260506130028 60 116 11.0 15.0 0.00 0.36 0.27 72 999.1
20260506124526 59 101 6.0 13.0 0.02 0.36 0.27 70 999.5
20260506123025 59 107 9.0 13.0 0.02 0.36 0.27 71 999.6
20260506121527 59 130 11.0 20.0 0.02 0.36 0.27 74 999.6
20260506120029 59 111 10.0 17.0 0.02 0.36 0.27 69 999.5
20260506114526 59 111 8.0 17.0 0.01 0.37 0.25 75 999.6
20260506113022 59 110 12.0 21.0 0.00 0.36 0.24 75 999.7
20260506111521 60 116 11.0 20.0 0.00 0.36 0.24 74 999.8
20260506110020 59 88 13.0 18.0 0.00 0.36 0.24 73 1000.0
20260506104518 59 107 13.0 20.0 0.00 0.40 0.24 74 1000.2
20260506103018 60 116 8.0 18.0 0.00 0.40 0.24 72 1000.2
20260506101514 58 97 12.0 19.0 0.00 0.40 0.24 71 1000.2
20260506100014 58 116 14.0 22.0 0.00 0.40 0.24 72 1000.3
20260506094511 58 126 11.0 18.0 0.01 0.43 0.24 70 1000.3
20260506093007 55 111 9.0 16.0 0.02 0.43 0.24 72 1000.3
20260506091507 55 217 8.0 16.0 0.07 0.43 0.24 72 1000.4
20260506090006 54 116 10.0 26.0 0.15 0.43 0.24 72 999.7
20260506084601 54 103 12.0 21.0 0.17 0.43 0.24 73 998.8
20260506083100 54 137 3.0 12.0 0.16 0.41 0.22 73 1000.3
20260506081552 54 130 5.0 10.0 0.12 0.37 0.18 73 1000.6
20260506080106 54 111 6.0 13.0 0.04 0.28 0.10 72 1000.6
20260506073057 54 116 9.0 16.0 0.01 0.31 0.06 73 1000.6
20260506071542 54 157 9.0 17.0 0.01 0.31 0.06 73 1000.5
20260506061532 54 132 4.0 10.0 0.00 0.46 0.06 73 1000.9
20260506044532 53 136 4.0 10.0 0.02 0.47 0.05 74 1001.4
20260506043022 53 165 3.0 9.0 0.02 0.47 0.05 74 1001.5
20260506041517 53 103 3.0 10.0 0.01 0.46 0.03 73 1001.5
20260506040013 53 89 5.0 12.0 0.01 0.45 0.02 73 1001.7
20260506034511 53 146 3.0 10.0 0.01 0.45 0.02 73 1001.6
20260506033009 54 84 3.0 8.0 0.02 0.45 0.02 74 1001.6
20260506031508 54 126 5.0 10.0 0.02 0.45 0.02 74 1001.6
20260506030003 54 107 2.0 8.0 0.01 0.44 0.02 73 1002.0
20260506024615 54 92 2.0 6.0 0.01 0.44 0.02 73 1002.3
20260506023105 54 132 2.0 9.0 0.00 0.43 0.01 73 1002.4
20260506021600 54 131 3.0 8.0 0.00 0.43 0.01 73 1002.6
20260506020054 54 156 3.0 8.0 0.00 0.43 0.01 73 1002.7
20260506014553 54 139 2.0 9.0 0.00 0.43 0.01 74 1002.6
20260506013100 54 138 2.0 6.0 0.01 0.43 0.01 74 1002.6
20260506011615 54 126 1.0 6.0 0.01 0.43 0.01 74 1002.7
20260506010053 54 121 2.0 10.0 0.01 0.43 0.01 74 1002.7
20260506004546 54 126 3.0 10.0 0.01 0.43 0.01 74 1003.0
20260506003042 54 102 3.0 9.0 0.00 0.43 0.00 74 1003.3